Regional Weather Roundup
Issued by NWS Northern Indiana

Home | Current Version | Previous Version | Graphics & Text | Print | Product List | Glossary On
Versions: 1 2 3 4 5 6 7 8 9 10 11 12 13 14 15 16 17 18 19 20 21 22 23 24 25 26 27 28 29 30 31 32 33 34 35 36 37 38 39 40 41 42 43 44 45 46 47 48 49 50
000
ASUS43 KIWX 251200
RWRIWX

KIWX WEATHER ROUNDUP
NATIONAL WEATHER SERVICE NORTHERN INDIANA
800 AM EDT TUE JUL 25 2017

NOTE: "FAIR" INDICATES FEW OR NO CLOUDS BELOW 12,000 FEET WITH NO
SIGNIFICANT WEATHER AND/OR OBSTRUCTIONS TO VISIBILITY.

* THESE STATIONS ARE NOT UNDER NWS QUALITY CONTROL. THEY ALSO MAY NOT
  REPORT WEATHER SUCH AS PRECIPITATION OR FOG.

INZ001>027-251300-
NORTHERN INDIANA

CITY           SKY/WX    TMP DP  RH WIND       PRES   REMARKS
GARY*          MOSUNNY   64  61  88 SE7       30.19R
VALPARAISO     SUNNY     61  60  97 E5        30.20R FOG
SOUTH BEND     SUNNY     62  58  86 E3        30.22R
6HR MIN TEMP:  56; 6HR MAX TEMP:  62;

ELKHART*       SUNNY     61  57  88 CALM      30.21S
GOSHEN         SUNNY     59  56  89 CALM      30.22R
6HR MIN TEMP:  53; 6HR MAX TEMP:  59;

MONTICELLO*    SUNNY     60  59  96 E5        30.19R
6HR MIN TEMP:  57; 6HR MAX TEMP:  62;

FORT WAYNE     MOSUNNY   62  57  83 CALM      30.21R
6HR MIN TEMP:  55; 6HR MAX TEMP:  62;

PERU/GRISSOM   SUNNY     63  62  97 E3        30.19R
6HR MIN TEMP:  57; 6HR MAX TEMP:  63;


$$
INZ028>050-251300-
CENTRAL INDIANA

CITY           SKY/WX    TMP DP  RH WIND       PRES   REMARKS
LAFAYETTE      SUNNY     62  60  93 E6        30.19R
6HR MIN TEMP:  58; 6HR MAX TEMP:  64;

KOKOMO*        SUNNY     61  59  93 E5        30.21R
6HR MIN TEMP:  56; 6HR MAX TEMP:  62;

MUNCIE*        SUNNY     63  59  87 CALM      30.21R
6HR MIN TEMP:  56; 6HR MAX TEMP:  63;

INDIANAPOLIS   MOSUNNY   65  57  75 E9        30.18R
6HR MIN TEMP:  63; 6HR MAX TEMP:  69;


$$
MIZ043>046-050>051-056>058-064>065-071>073-077>080-251300-
SOUTHWEST LOWER MICHIGAN

CITY           SKY/WX    TMP DP  RH WIND       PRES   REMARKS
BATTLE CREEK   SUNNY     60  56  86 CALM      30.23R
6HR MIN TEMP:  55; 6HR MAX TEMP:  60;

BENTON HARBOR  MOSUNNY   63  57  81 SE6       30.20R
6HR MIN TEMP:  55; 6HR MAX TEMP:  63;

COLDWATER*     SUNNY     58  58 100 CALM      30.23R
6HR MIN TEMP:  53; 6HR MAX TEMP:  58;

HILLSDALE*     SUNNY     55  52  88 CALM      30.22R
HOLLAND        SUNNY     61  56  83 S8        30.21R
6HR MIN TEMP:  56; 6HR MAX TEMP:  61;

GRAND RAPIDS   PTSUNNY   61  57  87 SE3       30.22R
6HR MIN TEMP:  57; 6HR MAX TEMP:  61;

KALAMAZOO      SUNNY     61  56  83 CALM      30.23R
6HR MIN TEMP:  55; 6HR MAX TEMP:  61;

STURGIS*       SUNNY     59  58  96 CALM      30.21S
6HR MIN TEMP:  54; 6HR MAX TEMP:  59;

THREE RIVERS*  FAIR      58  57  97 CALM      30.23R
6HR MIN TEMP:  54; 6HR MAX TEMP:  58;


$$
OHZ001>008-015>018-024>025-251300-
NORTHWEST OHIO

CITY           SKY/WX    TMP DP  RH WIND       PRES   REMARKS
DEFIANCE       SUNNY    N/A N/A N/A CALM      30.22R
FINDLAY        SUNNY     62  54  74 N6        30.20R
6HR MIN TEMP:  54; 6HR MAX TEMP:  63;

TOLEDO EXPRESS SUNNY     59  54  83 N3        30.21R
6HR MIN TEMP:  51; 6HR MAX TEMP:  59;

TOLEDO METCALF SUNNY     62  57  83 NW3       30.21R
6HR MIN TEMP:  57; 6HR MAX TEMP:  65;

LIMA           SUNNY     60  57  89 N3        30.21R
6HR MIN TEMP:  52; 6HR MAX TEMP:  60;


$$
AND FOR LAKE MICHIGAN COASTAL AND OPEN LAKE BUOY OBSERVATIONS

STATION/POSITION TEMP    WIND        PRES    VSBY  WAVE
                 AIR SEA DIR/SP/G                  HT/PER
                 (F)     (DEG/KT/KT) (MB)    (MI)  (FT/S)
CALUMET HARBOR    67     150/  3/  4 1021.4R
MICHIGAN CITY     63     110/  5/  6   N/A
BURNS HARBOR      67     100/  7/  9 1022.4F
SAINT JOSEPH      61      CALM  /  3 1023.4
SOUTH LAKE BUOY   70 71  110/  6/  8 1021.9          2/ 6
4 MI NW BRIDGMAN  64 71  160/ 10/ 12 1022.6R         2/ 5
MICHIGAN CITY     67 74  130/  8/ 12   N/A           3/ 5

$$
&&




USA.gov is the U.S. government's official web portal to all federal, state and local government web resources and services.